STARLINK-3803 (52381 NORAD) Tracking and Keplerian Element Data
This shows tracking and keplerian element data for the satellite.
Feedback or suggestion? Click here.
Element | Value |
Catalog | 52381 |
Name | STARLINK-3803 |
Epoch Orbit | 130 |
Epoch Day | 167.08334491 |
Epoch Year | 2022 |
RAAN | 202.6543 |
Inclination | 53.2134 |
Eccentricity | 0.0003693 |
Argument of Perigee | 12.2782 |
Mean Anonmoly | 299.5992 |
Mean Motion | 15.73153915 |
Decay Rate | 0.00080387 |
L1 | 1 52381U 22045BC 22167.08334491 .00080387 00000+0 57269-3 0 9999 |
L2 | 2 52381 53.2134 202.6543 0003693 12.2782 299.5992 15.73153915 1303 |
Live tracking and technical data element details for STARLINK-3803 (NORAD 52381). STARLINK-3803 can be tracked NOW for your location showing map with azimuth and elevation plus other details from your city location.
Track the satellite on the map from your city or location and see movement details for azimuth, elevation, latitude, longitude, range, height, and movement on the map or in text.
IsCatalogInMostPopularTable: catalog: 52381, numindb: 1
Update: records affected: 1
GetName: 52381 STARLINK-3803
Hit Count: updated at: Mon, 27 Jun 2022 06:32:17 GMT